| time (UTC) | temp F | wind direction | speed knots | gust knots | rain 1hr in | rain 24hr in | rain mn in | humidity % | barometer mb |
| 20260504214554 | 55 | 239 | 8.7 | 20.9 | 0.00 | 0.00 | 0.00 | 45 | 996.2 |
| 20260504213100 | 56 | 317 | 6.1 | 13.9 | 0.00 | 0.00 | 0.00 | 45 | 996.0 |
| 20260504211553 | 57 | 270 | 7.0 | 19.1 | 0.00 | 0.00 | 0.00 | 45 | 995.6 |
| 20260504210052 | 56 | 340 | 6.1 | 18.2 | 0.00 | 0.00 | 0.00 | 45 | 995.3 |
| 20260504204552 | 57 | 298 | 3.5 | 20.9 | 0.00 | 0.00 | 0.00 | 47 | 995.3 |
| 20260504203051 | 58 | 305 | 5.2 | 13.9 | 0.00 | 0.00 | 0.00 | 49 | 995.1 |
| 20260504201650 | 57 | 273 | 6.1 | 19.1 | 0.00 | 0.00 | 0.00 | 49 | 994.9 |
| 20260504200050 | 57 | 329 | 6.1 | 13.0 | 0.00 | 0.00 | 0.00 | 48 | 994.8 |
| 20260504194554 | 57 | 243 | 7.8 | 21.7 | 0.00 | 0.00 | 0.00 | 50 | 994.5 |
| 20260504193050 | 58 | 228 | 4.3 | 16.5 | 0.00 | 0.00 | 0.00 | 50 | 994.3 |
| 20260504191609 | 59 | 246 | 5.2 | 16.5 | 0.00 | 0.00 | 0.00 | 50 | 994.2 |
| 20260504190048 | 59 | 275 | 5.2 | 13.9 | 0.00 | 0.00 | 0.00 | 49 | 993.9 |
| 20260504184555 | 60 | 271 | 6.1 | 14.8 | 0.00 | 0.00 | 0.00 | 50 | 993.6 |
| 20260504183045 | 58 | 232 | 5.2 | 14.8 | 0.00 | 0.00 | 0.00 | 52 | 993.4 |
| 20260504181545 | 60 | 326 | 4.3 | 13.9 | 0.00 | 0.00 | 0.00 | 52 | 993.5 |
| 20260504180045 | 59 | 246 | 7.0 | 21.7 | 0.00 | 0.00 | 0.00 | 51 | 993.4 |
| 20260504174544 | 58 | 234 | 7.8 | 17.4 | 0.00 | 0.00 | 0.00 | 52 | 993.3 |
| 20260504173046 | 57 | 205 | 3.5 | 10.4 | 0.00 | 0.00 | 0.00 | 59 | 993.2 |
| 20260504171544 | 57 | 250 | 4.3 | 12.2 | 0.00 | 0.00 | 0.00 | 61 | 993.1 |
| 20260504081535 | 54 | 191 | 2.6 | 7.8 | 0.00 | 0.00 | 0.00 | 39 | 995.9 |
| 20260504050104 | 41 | 265 | 0.0 | 0.0 | 0.00 | 0.00 | 0.00 | 70 | 999.9 |
| 20260504044554 | 41 | 267 | 0.0 | 0.0 | 0.00 | 0.00 | 0.00 | 67 | 1000.1 |
| 20260504043050 | 42 | 234 | 0.0 | 0.9 | 0.00 | 0.00 | 0.00 | 66 | 1000.4 |
| 20260504041647 | 42 | 270 | 0.0 | 0.0 | 0.00 | 0.00 | 0.00 | 66 | 1000.6 |
| 20260504040044 | 43 | 270 | 0.0 | 0.0 | 0.00 | 0.00 | 0.00 | 66 | 1000.9 |
| 20260504034553 | 45 | 270 | 0.0 | 0.0 | 0.00 | 0.00 | 0.00 | 62 | 1001.2 |
| 20260504033051 | 45 | 270 | 0.0 | 0.0 | 0.00 | 0.00 | 0.00 | 58 | 1001.4 |
| 20260504031551 | 46 | 270 | 0.0 | 0.0 | 0.00 | 0.00 | 0.00 | 62 | 1001.5 |
| 20260504030047 | 46 | 270 | 0.0 | 0.0 | 0.00 | 0.00 | 0.00 | 60 | 1001.6 |
| 20260504024543 | 46 | 270 | 0.0 | 0.0 | 0.00 | 0.00 | 0.00 | 56 | 1001.7 |
| 20260504023037 | 46 | 270 | 0.0 | 0.0 | 0.00 | 0.00 | 0.00 | 58 | 1001.9 |
| 20260504021537 | 47 | 270 | 0.0 | 0.0 | 0.00 | 0.00 | 0.00 | 58 | 1002.0 |
| 20260504020037 | 47 | 270 | 0.0 | 0.0 | 0.00 | 0.00 | 0.00 | 57 | 1002.1 |
| 20260504014539 | 49 | 270 | 0.0 | 0.0 | 0.00 | 0.00 | 0.00 | 54 | 1002.1 |
| 20260504013039 | 51 | 270 | 0.0 | 0.9 | 0.00 | 0.00 | 0.00 | 46 | 1002.2 |
| 20260504011535 | 54 | 270 | 0.0 | 0.9 | 0.00 | 0.00 | 0.00 | 39 | 1002.3 |
| 20260504010036 | 56 | 270 | 0.0 | 0.0 | 0.00 | 0.00 | 0.00 | 32 | 1002.3 |
| 20260504004535 | 58 | 270 | 0.0 | 3.5 | 0.00 | 0.00 | 0.00 | 30 | 1002.5 |
| 20260504003041 | 59 | 271 | 1.7 | 6.1 | 0.00 | 0.00 | 0.00 | 28 | 1002.6 |
| 20260504001535 | 59 | 260 | 1.7 | 7.8 | 0.00 | 0.00 | 0.00 | 28 | 1002.6 |
| 20260504000033 | 60 | 279 | 1.7 | 7.8 | 0.00 | 0.00 | 0.00 | 28 | 1002.6 |
| 20260503234533 | 61 | 49 | 0.9 | 7.0 | 0.00 | 0.00 | 0.00 | 27 | 1002.5 |
| 20260503233037 | 62 | 263 | 2.6 | 10.4 | 0.00 | 0.00 | 0.00 | 27 | 1002.4 |
| 20260503231531 | 62 | 326 | 0.9 | 8.7 | 0.00 | 0.00 | 0.00 | 28 | 1002.4 |
| 20260503230031 | 62 | 320 | 2.6 | 7.8 | 0.00 | 0.00 | 0.00 | 30 | 1002.4 |
| 20260503224530 | 62 | 56 | 2.6 | 5.2 | 0.00 | 0.00 | 0.00 | 30 | 1002.4 |
| 20260503223030 | 62 | 261 | 4.3 | 10.4 | 0.00 | 0.00 | 0.00 | 29 | 1002.4 |
| 20260503221526 | 62 | 327 | 3.5 | 8.7 | 0.00 | 0.00 | 0.00 | 32 | 1002.2 |
| 20260503220126 | 62 | 231 | 4.3 | 13.9 | 0.00 | 0.00 | 0.00 | 38 | 1002.2 |